Find Starlink 32878

NORAD ID: 62892 Int'l Des: 2025-024 Owner: SPXS Country: US Constellation: starlink operational
LEOCIRCULAR

实时位置

正在加载3D地球...

关于 Starlink 32878

正在加载描述...

即将过境

Passes for default location (London). Set your location on the main map for personalized predictions.

高度历史

Loading altitude history...

两行轨道根数

1 62892U 25024P 26126.94380209 .00010950 00000-0 40719-3 0 9991
2 62892 42.9997 356.5083 0001017 291.3548 68.7195 15.27551270 71177
Epoch: May 6, 2026 • Age: 6 hours

当前状态

高度 482.4 km
速度 7.63 km/s
星下点 18.34°N, 74.93°E
发射日期 Feb 4, 2025
运行时间 1.2 years
类型 internet

技术详情

分类 Payload
质量 730.00 kg
干质量 700.00 kg
总质量 730.00 kg
长度 0.30 m
直径 4.10 m
跨度 29.00 m
形状 Box + pan
制造商 SPXS
平台类型 Starlink V2M
阶段状态 In Orbit
所有者/国家 SPXS/US

Most Searched